[[{"header":{"parameterUnit":"m.s-1","parameterCategory":1,"la1":30.2991,"la2":30.254,"lo1":-89.0895,"lo2":-89.0444,"dy":0.0017,"dx":0.0017,"nx":28,"ny":28,"refTime":"2023-10-01T09:00:00:Z","depth":0,"parameterNumber":2,"parameterNumberName":"U-component_of_WINDS"},"data":[0,0,0,0,0,0,0,0,0,0,0,0,0,0,0,0,0,0,0,0,0,0,0,0,0,0,0,0,0,0,0,0,0,0,0,0,0,0,0,0,0,0,0,0,0,0,0,0,0,0,0,0,0,0,0,0,0,0,-1.8312,-1.8311,0,-1.827,-1.827,-1.8269,-1.8132,-1.8129,-1.8126,-1.8123,-1.8083,-1.8085,-1.8087,0,0,0,0,0,0,0,0,0,0,0,0,0,-1.8276,-1.8277,-1.8312,-1.8311,-1.8311,-1.827,-1.827,-1.8269,-1.8133,-1.8129,-1.8125,-1.8122,-1.8082,-1.8085,-1.8087,0,0,0,0,0,0,0,0,0,0,0,0,0,-1.8269,-1.8278,-1.8312,-1.8238,-1.8231,-1.827,-1.827,-1.8269,-1.8133,-1.8129,-1.8124,-1.812,-1.8082,-1.8084,-1.8087,-1.8196,0,0,-1.8095,-1.8096,0,0,0,0,0,0,0,0,-1.8269,-1.827,-1.8249,-1.8243,-1.8235,-1.8201,-1.8242,-1.8245,-1.8135,-1.817,-1.8123,-1.8118,-1.8126,-1.8125,-1.8127,-1.8194,-1.8192,-1.8096,-1.8097,-1.8098,-1.8099,0,0,0,0,0,0,0,-1.827,-1.8271,-1.8295,-1.8249,-1.8241,-1.8207,-1.8201,-1.8242,-1.8175,-1.8167,-1.8157,-1.8154,-1.8122,-1.8125,-1.8126,-1.8192,-1.8095,-1.8098,-1.81,-1.8101,-1.8347,-1.8352,0,0,0,0,0,0,-1.8281,-1.8273,-1.8297,-1.8294,-1.8241,-1.8212,-1.8205,-1.8217,-1.8174,-1.8163,-1.8158,-1.8147,-1.8123,-1.8123,-1.8124,-1.825,-1.8098,-1.8101,-1.8102,-1.8342,-1.8348,-1.8354,0,0,0,0,0,0,-1.828,-1.8284,-1.8298,-1.8281,-1.828,-1.8217,-1.8232,-1.8219,-1.8222,-1.8167,-1.8155,-1.8174,-1.8119,-1.812,-1.8179,-1.8246,-1.8102,-1.8105,-1.8336,-1.8344,-1.8351,-1.8502,0,0,0,0,0,0,-1.828,-1.8285,-1.8325,-1.8283,-1.8281,-1.8354,-1.8236,-1.8221,-1.8227,-1.8213,-1.8179,-1.8168,-1.8116,-1.8176,-1.8182,-1.8248,-1.8107,-1.833,-1.834,-1.8349,-1.8491,-1.8514,-1.8534,0,0,0,0,0,-1.8279,-1.837,-1.8328,-1.8332,-1.833,-1.8358,-1.8358,-1.8295,-1.8233,-1.8273,-1.8238,-1.817,-1.8238,-1.8183,-1.8189,-1.8256,-1.8326,-1.8337,-1.8348,-1.8482,-1.851,-1.8533,0,0,0,0,0,0,-1.8423,-1.8363,-1.8316,-1.8395,-1.8383,-1.8335,-1.8384,-1.8326,-1.8332,-1.8319,-1.824,-1.8234,-1.8305,-1.8286,-1.8226,-1.836,-1.827,-1.8283,-1.837,-1.8396,-1.8417,-1.8421,-1.8109,0,0,0,0,0,-1.8463,-1.8491,-1.8437,-1.8512,-1.8508,-1.8448,-1.8458,-1.841,-1.8394,-1.8389,-1.8358,-1.8346,-1.8365,-1.8379,-1.8393,-1.8487,-1.8479,-1.8536,-1.8558,-1.8575,-1.8588,-1.8638,-1.8664,-1.839,-1.839,-1.839,0,0,-1.8548,-1.8519,-1.8541,-1.854,-1.8525,-1.8556,-1.8444,-1.8482,-1.8504,-1.8395,-1.8449,-1.8426,-1.8408,-1.8486,-1.8518,-1.8472,-1.8661,-1.8589,-1.8604,-1.8607,-1.8652,-1.8678,-1.8701,-1.8397,-1.8396,-1.8395,0,0,-1.8719,-1.8698,-1.876,-1.8747,-1.8725,-1.8684,-1.8699,-1.866,-1.8641,-1.8694,-1.8613,-1.8639,-1.8672,-1.8663,-1.8663,-1.8831,-1.8769,-1.8837,-1.895,-1.8999,-1.9021,-1.904,-1.9102,-1.9125,-1.885,-1.885,-1.885,0,-1.8827,-1.887,-1.8799,-1.8841,-1.8844,-1.8745,-1.8808,-1.8799,-1.8784,-1.8788,-1.8736,-1.8777,-1.8758,-1.8833,-1.8874,-1.8876,-1.8892,-1.8842,-1.9023,-1.9041,-1.9058,-1.9116,-1.914,-1.8859,-1.8858,-1.8857,-1.8856,0,-1.9005,-1.9036,-1.9088,-1.9076,-1.9084,-1.9137,-1.9074,-1.9091,-1.9043,-1.9008,-1.9064,-1.9037,-1.9045,-1.9059,-1.9012,-1.9128,-1.91,-1.9037,-1.8946,-1.9094,-1.9148,-1.9169,-1.8871,-1.8868,-1.8866,-1.8863,0,0,-1.9267,-1.9214,-1.9234,-1.9228,-1.9197,-1.922,-1.9268,-1.9275,-1.9292,-1.9284,-1.9325,-1.9355,-1.9297,-1.9297,-1.9248,-1.9291,-1.9428,-1.9222,-1.9221,-1.9264,-1.9557,-1.9607,-1.9634,-1.9386,-1.939,-1.9393,-1.9559,0,-1.943,-1.9509,-1.9447,-1.9538,-1.9567,-1.9473,-1.9515,-1.9501,-1.947,-1.9491,-1.9456,-1.948,-1.9399,-1.9399,-1.9438,-1.9404,-1.9487,-1.939,-1.9425,-1.9427,-1.9435,-1.9661,-1.9713,-1.9872,-1.958,-1.9583,-1.9586,0,-1.9632,-1.9634,-1.9728,-1.9691,-1.9701,-1.974,-1.9742,-1.9762,-1.9745,-1.9719,-1.972,-1.9659,-1.9705,-1.9614,-1.9678,-1.9614,-1.9624,-1.961,-1.9614,-1.9617,-1.9517,-1.9673,-1.992,-1.9945,-1.9617,-1.9615,-1.9613,0,-1.9817,-1.9842,-1.9901,-1.9899,-1.9857,-1.9887,-1.9871,-1.9849,-1.9858,-1.986,-1.9865,-1.9872,-1.9877,-1.9885,-1.9828,-1.9767,-1.99,-1.9804,-1.9882,-1.9884,-1.9916,-1.9915,-2.0172,-1.9919,-1.9919,-1.9918,-1.9918,0,-2.0007,-2.0069,-1.9984,-2.0021,-2.0088,-2.0015,-2.0084,-2.0058,-2.004,-2.0071,-1.999,-2.0022,-1.9944,-1.9968,-1.9924,-1.9985,-1.9987,-1.9969,-1.9957,-1.9978,-1.998,-1.9985,-1.9973,-1.9924,-1.9923,-1.9922,-1.9921,0,-2.0225,-2.017,-2.023,-2.0185,-2.0176,-2.0227,-2.019,-2.0223,-2.0186,-2.0227,-2.0232,-2.0175,-2.0199,-2.0143,-2.0158,-2.0129,-2.0217,-2.0186,-2.0223,-2.0214,-2.0297,-2.0291,-2.0567,-2.06,-2.0324,-2.0327,-2.0329,0,-2.0352,-2.0397,-2.0358,-2.0373,-2.0361,-2.0386,-2.0394,-2.0324,-2.0337,-2.0321,-2.0357,-2.0374,-2.0384,-2.0427,-2.0387,-2.0399,-2.037,-2.0466,-2.0371,-2.0391,-2.0374,-2.0373,-2.0379,-2.0486,-2.049,-2.0492,-2.0495,0,-2.0583,-2.0554,-2.0568,-2.0574,-2.0586,-2.0587,-2.0582,-2.06,-2.0525,-2.0543,-2.0566,-2.0574,-2.059,-2.0609,-2.0612,-2.0597,-2.0535,-2.0524,-2.0543,-2.0566,-2.0587,-2.0579,-2.0279,-2.0519,-2.0516,-2.0515,-2.0513,-2.0512,-2.0761,-2.0797,-2.0776,-2.0795,-2.0784,-2.0782,-2.0811,-2.0777,-2.0795,-2.0803,-2.076,-2.0793,-2.0776,-2.0774,-2.0765,-2.0791,-2.0747,-2.0775,-2.0782,-2.079,-2.0805,-2.0581,-2.0791,-2.079,-2.0789,-2.0788,-2.0788,0,-2.099,-2.0971,-2.0989,-2.0986,-2.1001,-2.0939,-2.0931,-2.0949,-2.0979,-2.0967,-2.0978,-2.1006,-2.1024,-2.0986,-2.0998,-2.1026,-2.0998,-2.1032,-2.1031,-2.1029,-2.0842,-2.0825,-2.1055,-2.1055,-2.1055,-2.1055,-2.1055,-2.1055,-2.1111,-2.117,-2.1139,-2.1192,-2.1172,-2.1204,-2.1205,-2.1203,-2.1194,-2.1228,-2.1242,-2.1217,-2.1195,-2.1205,-2.1219,-2.1208,-2.1217,-2.1262,-2.1241,-2.1068,-2.1042,-2.1017,-2.1001,-2.1264,-2.1264,-2.1426,-2.1427,-2.1428]},{"header":{"parameterUnit":"m.s-1","parameterCategory":1,"la1":30.2991,"la2":30.254,"lo1":-89.0895,"lo2":-89.0444,"dy":0.0017,"dx":0.0017,"nx":28,"ny":28,"refTime":"2023-10-01T09:00:00:Z","depth":0,"parameterNumber":3,"parameterNumberName":"V-component_of_WINDS"},"data":[0,0,0,0,0,0,0,0,0,0,0,0,0,0,0,0,0,0,0,0,0,0,0,0,0,0,0,0,0,0,0,0,0,0,0,0,0,0,0,0,0,0,0,0,0,0,0,0,0,0,0,0,0,0,0,0,0,0,-0.6986,-0.6986,0,-0.7052,-0.7052,-0.7053,-0.7084,-0.7084,-0.7084,-0.7084,-0.7151,-0.7153,-0.7154,0,0,0,0,0,0,0,0,0,0,0,0,0,-0.6886,-0.6887,-0.6986,-0.6987,-0.6987,-0.7051,-0.7052,-0.7053,-0.7084,-0.7084,-0.7084,-0.7084,-0.715,-0.7152,-0.7155,0,0,0,0,0,0,0,0,0,0,0,0,0,-0.6938,-0.6888,-0.6986,-0.701,-0.7013,-0.7051,-0.7052,-0.7053,-0.7084,-0.7084,-0.7084,-0.7084,-0.715,-0.7152,-0.7155,-0.7173,0,0,-0.7163,-0.7165,0,0,0,0,0,0,0,0,-0.6935,-0.6942,-0.7006,-0.7009,-0.7012,-0.7059,-0.7042,-0.7094,-0.7084,-0.7057,-0.7084,-0.7084,-0.712,-0.7126,-0.7138,-0.7176,-0.7179,-0.7164,-0.7165,-0.7166,-0.7167,0,0,0,0,0,0,0,-0.6931,-0.6939,-0.7012,-0.7007,-0.7011,-0.7018,-0.7025,-0.7052,-0.7088,-0.7059,-0.7062,-0.7069,-0.7122,-0.7135,-0.714,-0.718,-0.7163,-0.7166,-0.7168,-0.7169,-0.7236,-0.7236,0,0,0,0,0,0,-0.6924,-0.6936,-0.701,-0.7014,-0.6973,-0.702,-0.7028,-0.7044,-0.7088,-0.7095,-0.7069,-0.707,-0.7131,-0.7137,-0.7142,-0.7166,-0.7166,-0.7169,-0.7171,-0.7236,-0.7236,-0.7236,0,0,0,0,0,0,-0.6921,-0.693,-0.7007,-0.6975,-0.6986,-0.7022,-0.704,-0.7046,-0.7059,-0.7095,-0.7102,-0.7076,-0.7131,-0.7139,-0.7165,-0.7169,-0.717,-0.7173,-0.7235,-0.7236,-0.7236,-0.7214,0,0,0,0,0,0,-0.6918,-0.6929,-0.6937,-0.6975,-0.6987,-0.7029,-0.704,-0.7047,-0.7064,-0.7066,-0.7104,-0.711,-0.7131,-0.7161,-0.7168,-0.7173,-0.7175,-0.7235,-0.7235,-0.7236,-0.7215,-0.7214,-0.7213,0,0,0,0,0,-0.6915,-0.6928,-0.6937,-0.6946,-0.6998,-0.7029,-0.7036,-0.7061,-0.7064,-0.7072,-0.7095,-0.7109,-0.7167,-0.7163,-0.7171,-0.7177,-0.7235,-0.7235,-0.7236,-0.7215,-0.7214,-0.7213,0,0,0,0,0,0,-0.689,-0.6934,-0.6944,-0.697,-0.6996,-0.7034,-0.7045,-0.7058,-0.7083,-0.7084,-0.7114,-0.7122,-0.7146,-0.7164,-0.7159,-0.7197,-0.7202,-0.7204,-0.7184,-0.7183,-0.7182,-0.7178,-0.7177,0,0,0,0,0,-0.6887,-0.6909,-0.6946,-0.6966,-0.6978,-0.7009,-0.7024,-0.704,-0.7068,-0.7079,-0.7104,-0.713,-0.7154,-0.717,-0.7194,-0.7217,-0.7226,-0.7225,-0.7224,-0.7223,-0.7225,-0.7238,-0.7238,-0.7237,-0.7237,-0.7237,0,0,-0.6882,-0.6909,-0.6921,-0.6962,-0.6983,-0.7005,-0.7018,-0.7041,-0.7057,-0.7082,-0.7109,-0.7128,-0.7159,-0.7184,-0.7196,-0.72,-0.7227,-0.7224,-0.7222,-0.7225,-0.7238,-0.7238,-0.7238,-0.7237,-0.7237,-0.7237,0,0,-0.6884,-0.6907,-0.6926,-0.6947,-0.6979,-0.6999,-0.7003,-0.704,-0.7053,-0.708,-0.7099,-0.7119,-0.716,-0.7181,-0.7197,-0.7206,-0.7219,-0.7213,-0.7208,-0.722,-0.722,-0.7221,-0.7223,-0.7224,-0.7214,-0.7214,-0.7214,0,-0.6874,-0.6908,-0.6933,-0.6955,-0.6972,-0.6995,-0.7014,-0.7033,-0.7071,-0.7082,-0.7086,-0.7137,-0.716,-0.7189,-0.7191,-0.7204,-0.7209,-0.7209,-0.7218,-0.7219,-0.7219,-0.7222,-0.7223,-0.7213,-0.7213,-0.7213,-0.7213,0,-0.6894,-0.6917,-0.6928,-0.6964,-0.6982,-0.7002,-0.703,-0.7045,-0.706,-0.7079,-0.7106,-0.7133,-0.7163,-0.7171,-0.7186,-0.7203,-0.7204,-0.7213,-0.7219,-0.7218,-0.7221,-0.7223,-0.7211,-0.7212,-0.7212,-0.7212,0,0,-0.6884,-0.6933,-0.6936,-0.6953,-0.6989,-0.7007,-0.7028,-0.7057,-0.7069,-0.7094,-0.7112,-0.7146,-0.7153,-0.7171,-0.7188,-0.7199,-0.7203,-0.7206,-0.7207,-0.7205,-0.7224,-0.7218,-0.7219,-0.7212,-0.7213,-0.7213,-0.7221,0,-0.6891,-0.6929,-0.6952,-0.6981,-0.7002,-0.7023,-0.7041,-0.7065,-0.7083,-0.7104,-0.7124,-0.7147,-0.7156,-0.7167,-0.7178,-0.72,-0.7208,-0.72,-0.7229,-0.723,-0.7221,-0.722,-0.7214,-0.7221,-0.7223,-0.7223,-0.7223,0,-0.6906,-0.693,-0.6961,-0.6994,-0.7004,-0.7019,-0.7047,-0.7066,-0.7094,-0.7106,-0.7126,-0.7142,-0.7164,-0.7168,-0.7198,-0.7193,-0.7206,-0.7218,-0.7219,-0.7223,-0.7227,-0.7225,-0.7224,-0.7225,-0.7225,-0.7225,-0.7225,0,-0.6895,-0.6935,-0.6959,-0.6972,-0.7012,-0.7022,-0.7039,-0.7066,-0.7082,-0.7106,-0.7116,-0.7142,-0.7157,-0.7177,-0.72,-0.72,-0.7228,-0.7234,-0.7239,-0.7238,-0.7244,-0.7244,-0.7246,-0.7252,-0.7252,-0.7252,-0.7252,0,-0.6901,-0.6919,-0.6955,-0.6969,-0.699,-0.7015,-0.7034,-0.7053,-0.7076,-0.7094,-0.7114,-0.7131,-0.716,-0.718,-0.7198,-0.722,-0.7227,-0.7237,-0.7242,-0.7236,-0.7234,-0.7245,-0.7246,-0.7252,-0.7252,-0.7252,-0.7252,0,-0.6894,-0.6918,-0.6945,-0.6979,-0.6988,-0.7002,-0.7031,-0.7046,-0.7065,-0.7087,-0.7094,-0.7124,-0.7148,-0.7173,-0.7206,-0.7218,-0.724,-0.7246,-0.7231,-0.7234,-0.7237,-0.7237,-0.7247,-0.7249,-0.7253,-0.7253,-0.7253,0,-0.6896,-0.6911,-0.6946,-0.696,-0.6976,-0.6998,-0.7013,-0.7038,-0.7054,-0.7085,-0.7096,-0.7122,-0.7144,-0.7181,-0.7206,-0.7231,-0.7238,-0.724,-0.7242,-0.7235,-0.7239,-0.7238,-0.7239,-0.7239,-0.7239,-0.7239,-0.7239,0,-0.6899,-0.691,-0.6932,-0.6958,-0.6976,-0.6998,-0.702,-0.703,-0.7059,-0.7076,-0.7101,-0.7118,-0.7151,-0.7176,-0.7204,-0.7221,-0.7235,-0.7238,-0.724,-0.7235,-0.7225,-0.723,-0.7229,-0.7238,-0.7238,-0.7238,-0.7238,-0.7238,-0.6897,-0.691,-0.6937,-0.6961,-0.698,-0.7,-0.7015,-0.7036,-0.7057,-0.7086,-0.7099,-0.7124,-0.715,-0.7189,-0.7205,-0.7225,-0.7229,-0.7232,-0.7233,-0.7234,-0.7233,-0.7221,-0.723,-0.723,-0.723,-0.723,-0.723,0,-0.69,-0.6918,-0.694,-0.697,-0.6989,-0.6999,-0.7024,-0.7039,-0.7061,-0.7083,-0.7104,-0.7133,-0.7157,-0.7183,-0.7208,-0.7219,-0.7226,-0.7225,-0.7225,-0.7228,-0.7228,-0.7223,-0.7219,-0.7219,-0.7219,-0.7219,-0.7219,-0.7219,-0.6904,-0.6927,-0.6941,-0.6974,-0.6992,-0.7016,-0.7029,-0.7048,-0.7066,-0.7097,-0.7117,-0.7133,-0.7157,-0.7184,-0.7207,-0.7214,-0.7223,-0.722,-0.7228,-0.7228,-0.7228,-0.7229,-0.7225,-0.7221,-0.7221,-0.7228,-0.7228,-0.7228]}]]